Precipitable_Water
0.38 0.32 0.29 0.30 0.27 0.26 0.25 0.25 0.23 0.25 0.28 0.27 0.27 0.28 0.31 0.37 0.48 0.48 0.52 0.58 0.64 0.69 0.79 0.88 0.95 1.02 1.08 1.16 1.21 1.31 1.35 1.36 1.38 1.23 1.05 0.97 0.93 0.91 0.86 0.83 0.80 0.79 0.77 0.78
0.32 0.26 0.31 0.32 0.31 0.27 0.25 0.23 0.26 0.29 0.30 0.28 0.28 0.28 0.33 0.36 0.42 0.47 0.51 0.55 0.60 0.68 0.76 0.84 0.90 0.97 1.04 1.15 1.21 1.22 1.13 1.04 0.99 0.92 0.86 0.80 0.76 0.71 0.67 0.66 0.65 0.67 0.67 0.68
0.26 0.28 0.33 0.33 0.33 0.29 0.29 0.26 0.26 0.25 0.30 0.32 0.30 0.27 0.31 0.38 0.43 0.47 0.54 0.61 0.67 0.70 0.75 0.82 0.88 0.94 0.97 0.90 0.84 0.82 0.82 0.80 0.78 0.75 0.72 0.67 0.66 0.66 0.65 0.67 0.69 0.71 0.71 0.70
0.29 0.34 0.32 0.34 0.33 0.34 0.28 0.35 0.32 0.30 0.26 0.21 0.32 0.19 0.29 0.36 0.40 0.48 0.55 0.61 0.67 0.72 0.79 0.80 0.73 0.71 0.73 0.76 0.77 0.76 0.74 0.72 0.72 0.73 0.71 0.70 0.69 0.67 0.72 0.73 0.74 0.73 0.73 0.72
0.27 0.30 0.31 0.31 0.30 0.32 0.28 0.32 0.30 0.30 0.26 0.26 0.27 0.21 0.22 0.35 0.33 0.42 0.52 0.61 0.66 0.68 0.69 0.72 0.74 0.77 0.79 0.81 0.81 0.83 0.84 0.84 0.84 0.81 0.80 0.77 0.73 0.75 0.76 0.75 0.72 0.70 0.68 0.66
0.33 0.40 0.36 0.33 0.35 0.33 0.32 0.27 0.28 0.30 0.27 0.17 0.24 0.24 0.21 0.27 0.34 0.46 0.57 0.62 0.65 0.68 0.71 0.73 0.78 0.81 0.83 0.86 0.85 0.85 0.84 0.87 0.86 0.83 0.81 0.77 0.74 0.73 0.70 0.66 0.62 0.59 0.56 0.53
0.30 0.30 0.35 0.36 0.28 0.33 0.30 0.23 0.15 0.15 0.16 0.15 0.29 0.27 0.28 0.38 0.46 0.50 0.52 0.57 0.63 0.68 0.70 0.74 0.77 0.81 0.88 0.87 0.85 0.85 0.85 0.84 0.84 0.82 0.78 0.74 0.71 0.66 0.59 0.55 0.51 0.45 0.43 0.41
0.22 0.20 0.28 0.32 0.28 0.26 0.28 0.26 0.18 0.14 0.16 0.20 0.31 0.22 0.27 0.42 0.45 0.51 0.55 0.58 0.63 0.67 0.73 0.77 0.81 0.80 0.79 0.82 0.84 0.83 0.83 0.80 0.79 0.75 0.69 0.66 0.63 0.57 0.52 0.49 0.45 0.41 0.39 0.39
0.23 0.23 0.33 0.33 0.37 0.35 0.28 0.25 0.30 0.21 0.24 0.16 0.19 0.25 0.35 0.41 0.41 0.47 0.52 0.57 0.61 0.66 0.68 0.69 0.72 0.75 0.77 0.80 0.80 0.81 0.78 0.75 0.73 0.68 0.64 0.62 0.58 0.54 0.49 0.46 0.42 0.39 0.41 0.42
0.32 0.24 0.33 0.32 0.34 0.34 0.31 0.37 0.22 0.20 0.10 0.08 0.14 0.17 0.18 0.30 0.36 0.44 0.48 0.53 0.57 0.62 0.64 0.66 0.69 0.74 0.75 0.76 0.78 0.76 0.73 0.70 0.66 0.63 0.61 0.56 0.51 0.48 0.45 0.41 0.38 0.40 0.42 0.43
0.39 0.31 0.29 0.32 0.24 0.26 0.27 0.23 0.23 0.22 0.18 0.10 0.09 0.12 0.28 0.33 0.39 0.42 0.49 0.55 0.58 0.60 0.63 0.65 0.67 0.70 0.72 0.72 0.72 0.70 0.66 0.63 0.62 0.59 0.53 0.48 0.45 0.44 0.44 0.44 0.43 0.42 0.43 0.45
0.40 0.32 0.26 0.27 0.31 0.33 0.27 0.23 0.21 0.12 0.13 0.18 0.17 0.13 0.33 0.36 0.43 0.47 0.50 0.55 0.58 0.60 0.63 0.65 0.68 0.69 0.70 0.69 0.68 0.63 0.67 0.65 0.57 0.50 0.46 0.45 0.45 0.44 0.43 0.41 0.42 0.43 0.41 0.43
0.37 0.29 0.22 0.22 0.26 0.30 0.24 0.24 0.22 0.19 0.19 0.13 0.11 0.11 0.32 0.37 0.40 0.47 0.48 0.53 0.57 0.60 0.62 0.64 0.66 0.65 0.63 0.61 0.64 0.67 0.58 0.54 0.51 0.48 0.45 0.40 0.36 0.35 0.35 0.34 0.32 0.33 0.37 0.39
0.37 0.29 0.23 0.17 0.18 0.21 0.17 0.20 0.22 0.17 0.13 0.13 0.13 0.14 0.23 0.31 0.36 0.43 0.49 0.54 0.57 0.59 0.60 0.61 0.59 0.58 0.60 0.63 0.61 0.54 0.49 0.45 0.42 0.38 0.35 0.33 0.31 0.28 0.28 0.28 0.27 0.28 0.30 0.34
0.31 0.21 0.25 0.24 0.24 0.21 0.18 0.17 0.17 0.14 0.15 0.13 0.14 0.15 0.20 0.28 0.36 0.43 0.49 0.53 0.55 0.56 0.56 0.55 0.54 0.55 0.57 0.55 0.51 0.46 0.41 0.38 0.37 0.34 0.31 0.29 0.29 0.29 0.28 0.27 0.27 0.28 0.32 0.35
0.34 0.21 0.24 0.20 0.25 0.22 0.18 0.20 0.20 0.19 0.17 0.17 0.18 0.16 0.28 0.36 0.42 0.44 0.48 0.51 0.52 0.54 0.54 0.54 0.55 0.57 0.51 0.46 0.42 0.38 0.36 0.35 0.34 0.29 0.27 0.29 0.28 0.27 0.28 0.28 0.28 0.30 0.33 0.35
0.26 0.23 0.20 0.14 0.21 0.20 0.14 0.15 0.17 0.17 0.17 0.18 0.15 0.19 0.32 0.33 0.38 0.43 0.48 0.52 0.53 0.53 0.54 0.55 0.55 0.49 0.44 0.41 0.38 0.36 0.35 0.33 0.28 0.26 0.26 0.27 0.27 0.27 0.28 0.30 0.30 0.31 0.32 0.34
0.26 0.22 0.19 0.12 0.13 0.07 0.12 0.21 0.20 0.17 0.20 0.24 0.25 0.27 0.32 0.36 0.43 0.49 0.53 0.53 0.52 0.54 0.55 0.55 0.50 0.45 0.42 0.40 0.38 0.36 0.33 0.28 0.25 0.25 0.25 0.27 0.27 0.28 0.30 0.30 0.30 0.31 0.32 0.32
0.38 0.26 0.17 0.12 0.10 0.11 0.11 0.17 0.18 0.17 0.16 0.27 0.27 0.31 0.36 0.41 0.44 0.44 0.54 0.56 0.54 0.56 0.57 0.52 0.47 0.44 0.41 0.38 0.37 0.32 0.27 0.25 0.24 0.23 0.23 0.26 0.28 0.28 0.30 0.30 0.31 0.33 0.33 0.34
0.40 0.36 0.23 0.17 0.11 0.07 0.11 0.21 0.29 0.28 0.15 0.27 0.32 0.33 0.32 0.38 0.29 0.35 0.54 0.58 0.57 0.57 0.50 0.45 0.44 0.42 0.39 0.36 0.33 0.27 0.25 0.24 0.21 0.21 0.23 0.26 0.29 0.30 0.30 0.32 0.32 0.34 0.34 0.33
0.28 0.28 0.21 0.18 0.14 0.14 0.18 0.26 0.31 0.15 0.15 0.29 0.33 0.35 0.36 0.32 0.39 0.47 0.56 0.57 0.57 0.49 0.47 0.45 0.44 0.40 0.36 0.33 0.29 0.25 0.24 0.21 0.23 0.24 0.25 0.28 0.30 0.30 0.33 0.32 0.33 0.31 0.33 0.34
0.24 0.21 0.19 0.20 0.16 0.11 0.25 0.29 0.20 0.26 0.31 0.33 0.37 0.40 0.40 0.45 0.50 0.53 0.54 0.52 0.50 0.46 0.46 0.46 0.40 0.36 0.33 0.30 0.28 0.24 0.21 0.23 0.24 0.25 0.26 0.29 0.30 0.32 0.31 0.30 0.32 0.34 0.34 0.32
0.23 0.25 0.19 0.20 0.16 0.25 0.30 0.30 0.36 0.39 0.37 0.38 0.41 0.46 0.50 0.51 0.52 0.55 0.53 0.54 0.48 0.46 0.46 0.42 0.37 0.33 0.28 0.28 0.27 0.23 0.23 0.25 0.25 0.25 0.25 0.26 0.28 0.30 0.30 0.29 0.30 0.31 0.32 0.31
0.29 0.32 0.25 0.24 0.24 0.27 0.33 0.38 0.43 0.46 0.44 0.47 0.51 0.54 0.57 0.54 0.56 0.55 0.54 0.47 0.46 0.46 0.41 0.38 0.32 0.27 0.25 0.26 0.26 0.25 0.25 0.26 0.26 0.25 0.25 0.26 0.27 0.28 0.30 0.32 0.32 0.31 0.29 0.25
0.27 0.30 0.27 0.27 0.29 0.34 0.37 0.41 0.43 0.45 0.49 0.51 0.56 0.59 0.59 0.58 0.56 0.57 0.47 0.46 0.46 0.41 0.39 0.32 0.28 0.26 0.25 0.26 0.26 0.27 0.27 0.27 0.25 0.26 0.25 0.26 0.27 0.28 0.28 0.30 0.30 0.29 0.28 0.24
0.32 0.28 0.25 0.23 0.31 0.33 0.34 0.42 0.48 0.47 0.50 0.55 0.57 0.59 0.59 0.60 0.52 0.49 0.47 0.45 0.43 0.38 0.32 0.29 0.28 0.26 0.25 0.26 0.26 0.27 0.27 0.27 0.26 0.25 0.26 0.26 0.27 0.28 0.27 0.26 0.24 0.24 0.23 0.24
Wind_Speed
8 8 9 8 7 7 8 6 5 6 6 6 4 3 3 5 7 7 7 6 7 8 10 10 11 12 11 12 13 15 16 17 19 20 18 20 21 22 25 26 27 29 30 31
7 8 9 8 7 7 5 5 5 5 4 6 4 2 3 4 7 7 7 8 8 8 8 8 9 10 10 11 10 11 13 15 17 19 20 21 23 25 26 28 29 30 31 32
8 8 8 8 6 6 4 6 5 6 5 3 4 5 5 5 5 6 7 7 8 8 8 8 8 8 8 8 8 10 13 15 17 18 20 21 23 26 29 30 31 32 33 33
8 7 10 7 6 5 6 6 5 4 5 6 6 8 7 7 7 8 8 9 9 9 10 11 9 9 9 9 10 12 13 15 17 19 21 24 27 29 31 32 32 33 34 35
9 8 8 6 5 5 5 5 5 5 4 5 7 6 10 9 10 11 10 10 9 9 9 9 10 11 11 13 14 15 16 18 20 22 24 27 29 31 31 32 34 35 36 38
9 8 6 6 5 5 5 4 4 5 6 7 8 7 9 9 9 9 9 10 10 10 11 11 12 14 15 17 18 20 21 22 23 24 26 28 29 30 32 34 35 37 39 40
6 6 6 5 6 5 4 4 5 5 5 7 6 5 8 7 7 10 11 11 11 11 13 14 16 17 20 22 20 21 22 23 24 26 28 29 29 31 34 36 38 39 40 41
8 6 6 6 6 7 5 6 5 5 4 4 4 5 5 7 7 6 8 9 9 11 14 16 18 19 18 18 20 21 22 23 25 26 27 29 32 34 36 38 40 41 42 44
8 7 6 5 6 6 6 4 5 3 2 2 4 5 7 5 3 4 6 7 9 11 13 15 16 16 17 19 20 20 22 23 25 27 29 32 35 37 39 41 42 44 46 49
9 7 7 6 6 4 6 7 3 2 2 4 5 7 6 5 5 5 6 8 10 12 12 13 14 16 18 18 19 21 22 25 28 30 33 35 38 40 42 43 45 48 50 51
8 7 8 7 5 7 5 5 2 3 2 3 5 7 7 7 7 8 9 10 12 13 13 14 16 17 17 19 21 23 25 28 31 33 35 38 40 43 45 47 49 51 52 52
9 8 8 8 8 8 7 7 6 4 6 5 5 9 8 8 8 10 10 11 13 14 15 16 18 19 21 22 24 25 29 31 33 35 38 41 44 45 47 49 52 53 53 53
12 8 7 6 7 8 9 7 6 5 6 8 5 10 10 9 9 9 10 12 13 14 16 18 20 22 23 24 26 29 30 33 34 37 40 42 44 47 49 50 52 53 54 54
10 10 10 11 9 8 9 9 9 8 8 9 12 13 13 13 12 12 12 14 15 16 18 20 22 23 25 28 29 30 31 33 36 39 42 44 46 48 49 51 53 54 54 54
9 9 10 9 9 10 10 10 11 12 12 12 14 15 16 16 15 15 15 16 17 18 20 22 23 25 28 29 30 31 33 35 39 42 44 45 47 48 50 52 54 54 53 51
9 9 10 11 11 10 13 14 15 15 15 18 17 19 16 15 14 16 17 17 19 21 23 24 26 28 29 30 31 33 35 39 42 44 44 46 48 50 51 53 53 52 51 49
8 9 9 12 12 14 15 17 18 17 17 15 16 19 16 17 18 18 19 20 22 23 24 26 28 29 30 31 32 35 38 41 43 44 46 47 49 50 51 52 52 51 48 42
8 8 10 12 11 13 15 15 16 17 17 18 18 19 19 19 18 19 21 22 24 25 26 28 29 29 30 32 35 37 40 42 44 46 47 48 49 50 51 51 51 48 41 36
9 9 10 11 14 18 17 16 16 16 20 19 20 18 18 18 20 22 23 24 25 26 28 28 29 30 31 34 36 39 41 43 45 47 48 49 49 50 51 50 49 43 38 32
10 10 11 12 13 16 16 15 15 16 21 20 18 18 18 19 22 24 24 25 26 28 28 28 29 31 33 35 38 40 43 45 46 48 49 49 49 49 50 49 45 39 34 28
12 13 13 14 16 20 19 17 16 15 20 16 18 20 21 23 24 25 23 25 27 27 27 28 30 32 35 37 40 42 44 45 47 48 49 48 48 49 48 45 40 34 28 25
13 13 14 13 15 21 16 15 17 19 20 21 23 24 24 24 24 24 25 26 26 27 28 29 31 34 37 40 41 43 45 46 47 48 49 48 48 47 45 42 37 30 26 21
15 16 15 16 17 19 20 21 22 23 24 26 25 25 24 25 26 26 27 27 27 28 29 30 33 37 39 41 43 45 46 47 48 48 48 48 47 44 41 36 31 25 22 20
18 17 19 18 20 23 25 26 27 26 27 27 26 25 25 26 26 27 26 26 27 28 30 33 36 39 41 43 44 46 47 48 47 47 47 46 43 40 36 32 27 23 20 19
18 17 20 24 26 26 27 27 27 27 27 26 26 26 26 25 26 25 26 27 28 29 32 35 38 40 42 44 45 46 47 46 46 45 44 43 40 36 32 28 25 22 20 19
21 22 22 25 25 25 26 26 25 25 26 25 25 25 25 26 24 26 26 27 29 32 35 38 40 42 43 45 45 46 46 45 44 43 42 40 35 33 30 27 24 21 20 19
Wind_Direction
183 177 193 211 214 194 189 189 206 211 203 174 185 208 266 218 210 222 237 249 254 264 277 279 277 276 274 273 270 266 268 276 283 294 299 302 304 305 306 308 308 308 306 306
195 195 206 187 179 168 177 185 178 189 199 189 193 233 252 223 231 239 244 253 260 264 278 285 285 284 279 274 276 276 280 286 289 293 297 301 304 306 307 308 309 309 308 308
181 190 180 170 166 163 181 174 200 191 195 201 219 251 258 254 245 245 255 257 261 261 267 274 286 290 286 282 284 287 291 292 295 298 300 304 307 309 308 307 308 309 309 308
172 183 170 168 172 192 201 207 206 214 227 240 265 265 269 257 258 259 257 258 260 264 274 281 280 282 279 284 290 294 295 296 299 300 302 305 307 309 309 308 308 308 309 308
184 177 179 187 215 215 214 216 228 234 246 256 281 275 274 260 258 254 255 254 254 262 272 276 278 280 279 286 289 293 295 298 299 300 301 304 307 308 309 310 310 309 309 309
181 191 197 214 217 221 216 234 262 259 261 272 276 271 284 265 254 244 248 250 254 263 270 280 281 283 286 290 289 290 294 295 299 298 304 307 308 310 310 311 310 309 309 309
199 214 232 226 216 231 231 241 266 272 272 257 282 282 279 278 263 240 241 249 258 265 273 281 284 286 284 286 287 291 292 295 298 300 305 308 309 311 311 311 310 309 309 309
200 231 233 247 224 222 236 218 213 234 238 260 293 280 288 297 267 243 239 249 263 275 282 287 288 291 290 287 285 291 292 297 300 302 305 307 309 310 311 311 311 309 309 310
207 219 224 217 221 217 217 219 210 181 272 292 276 299 309 327 307 247 242 258 275 287 291 294 293 292 293 291 292 293 296 297 300 303 305 307 308 309 310 310 311 310 310 311
210 204 219 219 206 205 207 186 195 246 214 271 296 296 291 283 269 266 270 271 284 299 305 306 305 299 300 297 296 299 299 300 302 304 306 308 309 310 311 311 311 312 311 311
206 202 218 206 210 201 198 200 198 192 245 262 302 295 300 267 263 267 277 287 298 305 306 309 310 308 305 302 302 302 302 304 304 306 308 309 311 311 311 311 312 312 312 311
210 198 203 213 218 215 214 215 218 232 259 289 289 298 314 301 279 282 293 299 303 307 308 311 312 311 309 307 307 306 307 308 308 308 309 311 311 312 312 313 313 312 312 311
206 215 210 235 237 230 227 231 237 249 273 266 281 293 306 308 303 297 291 297 301 304 307 309 312 312 310 309 309 309 309 310 311 311 312 313 314 314 314 314 315 314 313 311
206 212 213 216 224 222 230 237 244 253 268 269 276 291 292 289 289 292 294 297 299 302 304 306 309 311 310 310 310 309 310 312 313 314 314 314 314 314 315 316 316 315 314 312
210 216 224 230 241 246 249 245 247 254 264 267 283 282 290 282 283 286 289 292 296 300 304 306 308 310 311 311 310 310 311 312 312 313 313 314 315 315 316 317 317 316 316 315
228 228 232 236 251 260 261 262 259 266 271 276 283 289 288 290 286 287 288 291 296 300 302 304 306 308 310 310 310 311 311 312 313 314 314 315 316 316 317 318 318 318 317 316
232 230 241 251 261 268 273 259 260 267 268 271 275 283 287 289 282 283 286 291 295 298 300 302 305 307 309 309 310 311 312 314 315 315 315 316 316 317 318 319 320 319 318 318
235 246 254 255 265 269 265 271 270 267 269 271 281 285 282 287 288 288 289 292 295 298 301 303 304 305 307 309 311 313 314 315 316 316 316 316 317 318 319 320 320 319 318 316
254 251 263 259 261 276 275 270 269 268 278 271 277 283 288 290 291 290 289 293 297 300 302 302 303 305 308 311 313 314 315 316 317 318 317 317 318 319 319 320 320 318 316 313
263 267 263 269 267 268 275 278 274 280 286 277 275 278 283 289 290 293 289 293 297 301 302 302 304 307 309 312 313 315 316 317 318 319 319 318 318 319 320 320 319 317 314 311
270 276 265 272 273 281 277 276 278 283 283 282 277 282 284 288 290 295 294 297 298 302 302 303 306 308 310 312 314 316 317 318 319 320 320 319 319 320 320 320 318 317 315 310
258 262 269 276 281 283 273 277 272 281 286 284 286 287 284 290 293 294 296 299 299 301 303 305 307 309 312 313 315 316 317 318 319 320 320 320 320 320 320 320 317 313 310 308
270 265 273 265 275 282 277 282 281 285 286 287 288 289 286 288 291 291 296 297 299 301 303 306 309 311 313 314 315 316 317 318 319 320 321 321 321 321 321 321 319 315 310 307
273 273 276 282 282 280 281 281 283 285 286 288 288 288 288 290 292 296 295 297 300 302 304 308 310 312 313 315 315 316 317 318 319 320 321 322 322 321 321 320 318 313 308 305
277 277 278 281 285 286 284 283 284 284 286 287 288 288 290 291 293 293 296 297 300 303 306 309 311 313 314 315 316 317 318 319 319 320 321 322 322 322 321 319 316 312 306 304
277 277 279 282 285 286 287 290 286 286 286 286 287 290 291 294 291 296 297 298 301 305 308 310 312 313 314 315 316 317 318 318 318 319 320 321 322 321 321 319 314 310 305 303